Location: Chaumargeais
(45.0901°N, 4.3440°E)
Time: 00:44:25
(UTC+00:00)

Daily predictions for brighter satellites

Satellite Brightness Start Highest point End
(mag) Time Altitude Azimuth Time Altitude Azimuth Time Altitude Azimuth
SL-16 R/B 4.4 00:12:20 24° NNE 00:12:20 24° NNE 00:15:35 10° N
CZ-4C R/B 4.5 00:47:10 19° NNW 00:47:10 19° NNW 00:51:23 10° NNE
Cosmos 2227 Rocket 4.0 01:22:35 10° NNW 01:25:13 26° N 01:25:13 26° N
Lacrosse 5 4.4 01:32:48 15° E 01:32:48 15° E 01:34:00 10° ENE
USA 234 4.1 01:27:22 10° E 01:33:30 45° NNE 01:37:43 20° NW
ADEOS II 3.7 01:35:20 10° NNE 01:38:28 32° NE 01:38:28 32° NE
IDEFIX/ARIANE 42P 4.5 01:49:02 10° NE 01:53:09 23° E 01:53:41 22° E
SL-16 R/B 4.1 01:57:26 24° NNW 01:57:26 24° NNW 01:59:47 10° NNW
ARIANE 5 R/B 3.9 01:57:45 10° NNE 02:01:51 33° E 02:01:51 33° E
CZ-2D R/B 3.6 01:59:22 10° N 02:02:04 29° N 02:02:04 29° N
ATLAS 5 CENTAUR R/B 3.7 02:07:56 22° N 02:07:56 22° N 02:10:03 10° NNE
Cosmos 2297 Rocket 4.3 02:09:26 10° NNW 02:10:32 16° NNW 02:10:32 16° NNW
Resurs 1-4 Rocket 3.7 02:13:23 10° N 02:15:58 26° NNW 02:15:58 26° NNW
Cosmos 2082 4.1 02:13:44 10° NNW 02:19:23 60° ENE 02:20:23 52° ESE
SJ 16-02 4.4 02:26:51 10° NNE 02:29:20 15° NE 02:31:48 10° E
Cosmos 1697 Rocket 2.8 02:32:33 70° E 02:32:33 70° E 02:37:58 10° NNE
ASTEX 1 4.3 02:30:37 10° NNE 02:35:25 45° E 02:36:23 40° ESE
IRS-P3 4.2 02:30:43 10° NNE 02:35:28 71° N 02:35:28 71° N
Cosmos 1980 Rocket 3.1 02:35:19 36° SE 02:36:35 41° ESE 02:41:53 10° NE
H-2A R/B 4.2 02:33:03 10° ESE 02:36:40 26° ENE 02:40:21 10° N
USA 267 3.1 02:34:46 10° NE 02:41:19 77° NW 02:42:17 65° W
Cosmos 2263 Rocket 4.1 02:40:28 10° N 02:45:23 29° NE 02:50:18 10° ESE
SL-8 R/B 4.1 02:46:01 59° NNE 02:46:01 59° NNE 02:50:29 10° E
ERS-1 4.5 02:40:38 10° NNE 02:45:42 83° E 02:45:42 83° E
USA 307 3.5 02:52:25 53° ENE 02:52:25 53° ENE 02:55:46 10° ENE
USA 308 3.4 02:55:23 58° ENE 02:55:23 58° ENE 02:58:52 10° ENE
Cosmos 1821 Rocket 3.8 02:48:49 10° NNW 02:55:09 75° W 02:56:29 56° SSW
Cosmos 1470 Rocket 4.1 02:51:58 10° N 02:55:25 54° N 02:55:25 54° N
Spot 4 Rocket 4.1 02:53:31 10° NNE 02:58:41 75° ESE 02:59:44 56° S
SL-24 R/B 4.3 02:59:50 69° NW 02:59:50 69° NW 03:04:27 10° NNW
Celestis-02/Orion 38 4.4 03:00:47 10° SSE 03:06:04 78° WSW 03:11:17 10° NNW
Cosmos 1782 2.9 03:10:11 72° NNE 03:10:11 72° NNE 03:13:50 10° N
Cosmos 1934 Rocket 3.9 03:04:05 10° N 03:10:11 85° E 03:16:16 10° S
Cosmos 1777 Rocket 3.8 03:05:31 10° NNW 03:10:44 70° WSW 03:12:06 48° S
Cosmos 1656 4.5 03:12:05 34° NW 03:12:08 34° NW 03:17:08 10° N
Cosmos 1238 Rocket 4.1 03:05:47 10° N 03:12:29 81° E 03:18:38 10° S
Lacrosse 5 1.8 03:12:00 65° W 03:12:34 72° NW 03:17:39 10° NE
ADEOS Rocket 4.4 03:08:48 10° SE 03:15:10 43° ENE 03:20:58 10° N
Cosmos 1515 Rocket 3.4 03:15:08 76° WSW 03:15:17 78° W 03:19:46 10° N
USA 234 3.1 03:09:44 10° SE 03:16:16 77° SW 03:22:50 10° NW
CZ-2C R/B 2.7 03:14:34 10° NNE 03:18:21 78° ESE 03:18:32 76° SE
Meteor 1-20 Rocket 4.3 03:13:29 10° NNW 03:18:42 49° W 03:18:42 49° W
Nadezhda 3 Rocket 4.1 03:18:39 45° WSW 03:19:49 51° WNW 03:25:49 10° N
ADEOS II 3.2 03:15:28 10° N 03:19:23 27° NW 03:19:23 27° NW
USA 276 3.3 03:21:38 39° NNE 03:21:38 39° NNE 03:24:13 10° ENE
Cosmos 972 Rocket 4.0 03:24:15 49° W 03:24:39 50° WNW 03:29:26 10° N
Cosmos 44 3.2 03:24:49 46° S 03:26:01 70° ESE 03:30:36 10° NE
Cosmos 1356 3.4 03:25:23 10° N 03:28:27 69° NNW 03:28:27 69° NNW
MSX 3.7 03:23:27 10° NNE 03:29:16 81° WNW 03:32:39 26° SSW
Cosmos 921 Rocket 3.5 03:27:48 25° S 03:30:01 54° ESE 03:34:07 10° NNE
Timation 1 Rocket 4.2 03:24:11 10° NNW 03:30:10 72° WSW 03:36:08 10° SSE
Cosmos 2278 3.6 03:28:11 40° SW 03:30:16 72° WNW 03:36:00 10° NNE
Cosmos 1605 Rocket 4.1 03:26:33 10° N 03:32:59 83° E 03:39:24 10° S
IDEFIX/ARIANE 42P 2.8 03:27:54 10° N 03:33:01 51° WNW 03:34:28 40° WSW
CZ-3B R/B 3.1 03:32:05 27° NW 03:33:20 35° N 03:41:08 10° ENE
Cosmos 2228 Rocket 3.0 03:31:11 28° S 03:33:27 84° E 03:37:52 10° N
Cosmos 1933 Rocket 3.5 03:29:29 10° NNW 03:33:46 55° W 03:34:18 51° WSW
Cosmos 1535 Rocket 4.5 03:27:28 10° NNW 03:33:49 69° W 03:40:09 10° S
Cosmos 1151 Rocket 4.4 03:37:30 23° NW 03:37:30 23° NW 03:40:10 10° NNW
Cosmos 2369 4.2 03:36:40 35° W 03:38:19 44° WNW 03:43:49 10° NNE
ARIANE 5 R/B 3.2 03:36:54 10° N 03:41:25 33° WNW 03:42:10 31° W
CZ-4C R/B 3.0 03:42:39 49° SW 03:43:16 58° WSW 03:46:50 10° NNW
ALOS 4.2 03:44:00 10° NNE 03:48:06 30° E 03:52:10 10° SSE
IRIDIUM 106 4.4 03:43:43 10° N 03:48:58 83° E 03:54:11 10° S
ATLAS 5 CENTAUR R/B 4.1 03:50:19 10° NW 03:51:57 12° NNW 03:53:39 10° N
Cosmos 1869 Rocket 3.4 03:48:25 10° N 03:52:48 87° W 03:57:07 10° S
Meteor 1-4 Rocket 2.7 03:52:32 12° S 03:55:42 67° E 03:59:11 10° NNE
USA 305 3.6 03:58:51 26° WNW 04:00:45 41° NNW 04:04:49 10° NE
X-37B 0.5 04:01:25 38° W 04:02:29 89° WSW 04:05:41 10° E
USA 306 3.7 04:02:46 24° WNW 04:04:51 40° NNW 04:08:53 10° NE
Cosmos 1763 Rocket 3.9 04:00:43 10° S 04:05:57 65° ESE 04:11:14 10° NNE
Cosmos 1727 Rocket 4.0 03:59:39 10° S 04:06:01 89° E 04:12:23 10° N
Cosmos 389 Rocket 3.7 04:06:11 24° WNW 04:06:13 24° WNW 04:09:10 10° NNW
Meteor 1-31 Rocket 4.4 04:04:11 10° NNE 04:07:44 35° E 04:11:16 10° SSE
SJ 16-02 1.2 04:04:02 10° NNW 04:08:24 68° WSW 04:12:45 10° S
PSLV R/B 3.5 04:06:11 10° N 04:10:20 58° WNW 04:14:18 11° SSW
Cosmos 2360 Rocket 4.1 04:05:47 10° SSE 04:10:40 31° ESE 04:15:34 10° NE
H-2A R/B 2.7 04:08:32 10° SSW 04:12:29 34° W 04:16:31 10° NNW
ERS-2 2.3 04:09:49 10° S 04:13:21 48° WSW 04:16:56 10° NNW
Cosmos 1697 Rocket 4.1 04:14:19 16° W 04:16:54 22° NW 04:21:14 10° N
CZ-2C R/B 2.6 04:12:59 10° N 04:18:00 59° WNW 04:23:05 10° SSW
Gbstr 26 Del rocket 4.4 04:11:33 10° WNW 04:19:39 88° NNE 04:26:45 10° ESE
Cosmos 1980 Rocket 3.0 04:17:07 18° WSW 04:20:40 34° NW 04:25:49 10° N
PAYLOAD A 4.1 04:17:01 10° N 04:21:31 46° WNW 04:25:58 10° SW
USA 267 4.2 04:17:55 10° NE 04:23:49 37° NNW 04:29:37 10° W
Meteor 1-10 Rocket 4.4 04:20:04 10° SSW 04:25:41 55° WNW 04:31:28 10° N
FENGYUN 3A 4.0 04:20:18 10° NNE 04:25:42 71° ESE 04:31:05 10° S
Cosmos 2322 Rocket 2.5 04:20:09 10° SSW 04:25:48 74° ESE 04:31:30 10° NNE
SJ-6F 4.3 04:23:08 10° N 04:27:15 74° WNW 04:31:20 10° SSW
NOSS 3-3 (A) 4.0 04:22:35 13° SW 04:27:44 63° NW 04:34:16 10° NE
NOSS 3-3 (C) 4.0 04:22:46 13° SW 04:27:50 63° NW 04:34:21 10° NE
Cosmos 990 Rocket 3.9 04:22:56 10° NNW 04:28:05 67° WSW 04:33:14 10° S
SL-8 R/B 3.7 04:24:00 12° WNW 04:28:23 65° SSW 04:33:06 10° SE
Cosmos 1459 Rocket 4.0 04:23:13 10° N 04:29:22 83° E 04:35:24 10° S
Cosmos 2263 Rocket 2.4 04:24:06 10° NW 04:29:33 49° WSW 04:34:58 10° S
Cosmos 1812 3.5 04:27:26 12° SW 04:30:30 31° WNW 04:33:58 10° NNW
Cosmos 468 Rocket 4.0 04:25:19 10° SSW 04:30:36 71° WNW 04:35:53 10° NNE
USA 307 4.1 04:28:36 13° WNW 04:31:53 32° NNW 04:35:45 10° NE
SL-16 R/B 2.2 04:27:49 10° SSW 04:33:29 81° WNW 04:39:12 10° NNE
USA 308 4.1 04:31:34 12° WNW 04:35:01 31° NNW 04:38:51 10° NE
COSMO-SKYMED 1 3.5 04:31:00 10° SSE 04:35:13 54° ENE 04:39:28 10° N
Cosmos 1844 Rocket 3.9 04:31:03 10° NNW 04:36:29 45° ENE 04:41:53 10° SE
Cosmos 1500 4.5 04:33:46 10° NW 04:36:41 21° W 04:39:35 10° SW
SL-4 R/B 3.2 04:33:48 10° SW 04:38:13 48° SE 04:42:51 10° ENE
Cosmos 540 Rocket 4.0 04:34:07 10° S 04:39:13 65° ESE 04:44:22 10° NNE
Cosmos 44 Rocket 4.5 04:36:17 10° S 04:40:43 43° ESE 04:45:17 10° NE
ATLAS CENTAUR R/B 4.0 04:32:32 10° NW 04:41:27 39° NNE 04:45:16 10° E
Cosmos 1666 3.2 04:39:10 10° NNW 04:42:45 38° W 04:46:16 10° SSW
ATLAS 2AS CENTAUR R/B 3.3 04:35:43 10° NW 04:43:15 66° NE 04:50:08 10° SE
ERBS 2.5 04:42:54 11° WSW 04:46:05 55° NW 04:49:24 10° NE
CZ-4B R/B 2.0 04:44:40 10° SSW 04:47:29 31° W 04:50:23 10° NNW
deb Chang Zheng 4 4.0 04:52:12 10° N 04:56:16 42° WNW 05:00:17 10° SW
Lacrosse 5 3.3 04:52:00 10° WNW 04:56:16 26° NNW 05:00:31 10° NE
Cosmos 1898 Rocket 3.9 04:51:37 10° NW 04:56:32 42° WSW 05:01:28 10° S
USA 276 3.5 04:54:53 10° WNW 04:57:52 33° N 05:00:51 10° ENE
Cosmos 2173 Rocket 4.1 04:53:19 10° NNW 04:59:30 59° W 05:05:44 10° S
USA 234 4.4 04:55:13 10° S 04:59:58 21° WSW 05:04:45 10° WNW
CZ-4B R/B 2.7 04:56:45 10° NNE 05:00:27 87° ESE 05:04:03 10° SSW
CZ-4B R/B 4.2 04:56:22 10° N 05:00:34 57° WNW 05:04:54 10° SSW
ADEOS Rocket 3.7 04:54:22 10° SSW 05:00:42 37° W 05:06:29 10° NNW
Cosmos 2242 Rocket 4.3 04:56:47 10° S 05:01:06 59° E 05:05:26 10° NNE
BREEZE-M DEB (TANK) 2.4 04:55:17 10° WSW 05:01:39 78° SSE 05:04:14 10° E
